Tracking 20942 objects as of 10-Jul-2020
HD Live streaming from Space Station
objects crossing your sky now

ONEWEB-0045

Track ONEWEB-0045 now!
10-day predictions
ONEWEB-0045 is classified as:


NORAD ID: 45151
Int'l Code: 2020-008W
Perigee: 654.5 km
Apogee: 682.1 km
Inclination: 87.5 °
Period: 98.0 minutes
Semi major axis: 7039 km
RCS: Unknown
Launch date: February 6, 2020
Source: United Kingdom (UK)
Launch site: TYURATAM MISSILE AND SPACE COMPLEX (TTMTR)
aabbcc
Your satellite tracking list
Your tracking list is empty




NASA's NSSDC Master Catalog

Two Line Element Set (TLE):
1 45151U 20008W   20191.91670139 -.00061684 +00000-0 -10378-1 0  9992
2 45151 087.4560 114.8617 0019631 113.0818 090.6325 14.69961462001754
Source of the keplerian elements: AFSPC